TXG606 TAPA-TKPK

Flight info

Callsign TXG606
Flight time 0h 19m
Altitude 10000
Route ANU DCT RESAS DCT SKB
Aircraft B738/M-SDE2E3FGHIRWXY/LB1

Departure

Time 2026-05-05 00:04
Airport V. C. Bird International Airport (TAPA)

Arrival

Time 2026-05-05 00:24
Airport Robert L. Bradshaw International Airport (TKPK)
Time Latitude Longitude Altitude Speed Heading
2026-05-04 23:03 17.13886 -61.79316 63 ft 0 kts 328°
2026-05-04 23:48 17.13882 -61.79313 55 ft 4 kts 327°
2026-05-04 23:48 17.13859 -61.79298 57 ft 4 kts 324°
2026-05-04 23:49 17.13838 -61.79280 54 ft 4 kts 317°
2026-05-04 23:49 17.13820 -61.79260 56 ft 4 kts 297°
2026-05-04 23:49 17.13816 -61.79239 56 ft 2 kts 239°
2026-05-04 23:49 17.13817 -61.79237 55 ft 0 kts 238°
2026-05-04 23:59 17.13815 -61.79241 63 ft 2 kts 238°
2026-05-04 23:59 17.13803 -61.79261 62 ft 5 kts 238°
2026-05-05 00:00 17.13777 -61.79304 58 ft 9 kts 238°
2026-05-05 00:00 17.13765 -61.79323 58 ft 5 kts 237°
2026-05-05 00:00 17.13760 -61.79332 59 ft 1 kts 236°
2026-05-05 00:00 17.13755 -61.79339 59 ft 1 kts 236°
2026-05-05 00:01 17.13751 -61.79343 62 ft 1 kts 213°
2026-05-05 00:01 17.13750 -61.79343 62 ft 0 kts 205°
2026-05-05 00:01 17.13714 -61.79333 65 ft 7 kts 149°
2026-05-05 00:01 17.13670 -61.79318 65 ft 7 kts 187°
2026-05-05 00:02 17.13631 -61.79344 68 ft 7 kts 229°
2026-05-05 00:02 17.13583 -61.79418 68 ft 19 kts 238°
2026-05-05 00:02 17.13495 -61.79568 64 ft 29 kts 238°
2026-05-05 00:02 17.13384 -61.79757 62 ft 32 kts 239°
2026-05-05 00:03 17.13262 -61.79966 64 ft 35 kts 239°
2026-05-05 00:03 17.13139 -61.80178 61 ft 24 kts 237°
2026-05-05 00:03 17.13120 -61.80233 58 ft 3 kts 230°
2026-05-05 00:03 17.13104 -61.80232 64 ft 2 kts 141°
2026-05-05 00:04 17.13107 -61.80216 57 ft 5 kts 58°
2026-05-05 00:04 17.13296 -61.79906 62 ft 100 kts 58°
2026-05-05 00:04 17.13807 -61.79018 154 ft 176 kts 59°
2026-05-05 00:04 17.14474 -61.77918 1203 ft 182 kts 60°
2026-05-05 00:05 17.15200 -61.76789 2243 ft 201 kts 53°
2026-05-05 00:05 17.16313 -61.75884 3309 ft 203 kts 30°
2026-05-05 00:05 17.17733 -61.75608 4091 ft 217 kts 352°
2026-05-05 00:05 17.19120 -61.76382 4488 ft 244 kts 313°
2026-05-05 00:06 17.19853 -61.78041 4861 ft 264 kts 275°
2026-05-05 00:06 17.19581 -61.79956 5280 ft 278 kts 253°
2026-05-05 00:06 17.19269 -61.81979 6084 ft 286 kts 264°
2026-05-05 00:06 17.19166 -61.84083 6890 ft 293 kts 267°
2026-05-05 00:07 17.19147 -61.86228 7781 ft 295 kts 269°
2026-05-05 00:07 17.19160 -61.87848 8451 ft 297 kts 270°
2026-05-05 00:07 17.19186 -61.89368 9156 ft 296 kts 270°
2026-05-05 00:07 17.19234 -61.91517 9742 ft 297 kts 271°
2026-05-05 00:08 17.19288 -61.93568 9990 ft 299 kts 271°
2026-05-05 00:08 17.19351 -61.95754 10001 ft 301 kts 271°
2026-05-05 00:08 17.19417 -61.97948 10017 ft 303 kts 271°
2026-05-05 00:08 17.19486 -62.00147 10020 ft 303 kts 271°
2026-05-05 00:09 17.19554 -62.02345 10023 ft 303 kts 271°
2026-05-05 00:09 17.19624 -62.04553 10021 ft 303 kts 271°
2026-05-05 00:09 17.19692 -62.06726 10021 ft 303 kts 271°
2026-05-05 00:09 17.19763 -62.08953 10019 ft 302 kts 271°
2026-05-05 00:10 17.19832 -62.11150 10024 ft 302 kts 271°
2026-05-05 00:10 17.19900 -62.13317 10023 ft 301 kts 271°
2026-05-05 00:10 17.19969 -62.15507 10023 ft 301 kts 271°
2026-05-05 00:10 17.20038 -62.17693 10028 ft 301 kts 271°
2026-05-05 00:11 17.20106 -62.19880 10028 ft 300 kts 271°
2026-05-05 00:11 17.20173 -62.22066 10024 ft 300 kts 271°
2026-05-05 00:11 17.20241 -62.24245 10020 ft 300 kts 271°
2026-05-05 00:11 17.20308 -62.26427 10017 ft 300 kts 271°
2026-05-05 00:12 17.20375 -62.28608 10021 ft 300 kts 271°
2026-05-05 00:12 17.20442 -62.30784 10023 ft 300 kts 271°
2026-05-05 00:12 17.20509 -62.32976 10023 ft 300 kts 271°
2026-05-05 00:12 17.20574 -62.35124 10019 ft 300 kts 271°
2026-05-05 00:13 17.20640 -62.37310 10016 ft 301 kts 271°
2026-05-05 00:13 17.20705 -62.39492 10011 ft 298 kts 271°
2026-05-05 00:13 17.20542 -62.41625 10013 ft 292 kts 259°
2026-05-05 00:13 17.20110 -62.43687 10010 ft 290 kts 255°
2026-05-05 00:14 17.19623 -62.45719 10005 ft 287 kts 255°
2026-05-05 00:14 17.19137 -62.47741 9907 ft 289 kts 255°
2026-05-05 00:14 17.18657 -62.49788 9737 ft 289 kts 256°
2026-05-05 00:14 17.18188 -62.51838 9452 ft 290 kts 256°
2026-05-05 00:15 17.17726 -62.53888 9161 ft 288 kts 256°
2026-05-05 00:15 17.17273 -62.55920 8878 ft 286 kts 256°
2026-05-05 00:15 17.16823 -62.57947 8580 ft 285 kts 256°
2026-05-05 00:15 17.16376 -62.59968 8285 ft 285 kts 256°
2026-05-05 00:16 17.15932 -62.61980 7994 ft 284 kts 256°
2026-05-05 00:16 17.15488 -62.63993 7694 ft 284 kts 256°
2026-05-05 00:16 17.15043 -62.66005 7384 ft 284 kts 256°
2026-05-05 00:16 17.14598 -62.68019 7092 ft 284 kts 256°
2026-05-05 00:17 17.14152 -62.70035 6759 ft 286 kts 256°
2026-05-05 00:17 17.13705 -62.72056 6462 ft 286 kts 256°
2026-05-05 00:17 17.13263 -62.74058 6148 ft 286 kts 256°
2026-05-05 00:17 17.12816 -62.76078 5844 ft 285 kts 256°
2026-05-05 00:18 17.12370 -62.78095 5552 ft 284 kts 255°
2026-05-05 00:18 17.11926 -62.80100 5267 ft 283 kts 255°
2026-05-05 00:18 17.11491 -62.82105 4980 ft 282 kts 259°
2026-05-05 00:18 17.11585 -62.84134 4681 ft 283 kts 287°
2026-05-05 00:19 17.12565 -62.85893 4414 ft 279 kts 314°
2026-05-05 00:19 17.14038 -62.87159 4259 ft 271 kts 327°
2026-05-05 00:19 17.15593 -62.88218 4129 ft 263 kts 329°
2026-05-05 00:19 17.17195 -62.89053 3990 ft 253 kts 349°
2026-05-05 00:20 17.18923 -62.89077 3667 ft 249 kts 17°
2026-05-05 00:20 17.20455 -62.88317 3359 ft 241 kts 41°
2026-05-05 00:20 17.21563 -62.87060 3000 ft 231 kts 58°
2026-05-05 00:20 17.22440 -62.85694 2657 ft 221 kts 60°
2026-05-05 00:21 17.23247 -62.84394 2324 ft 211 kts 60°
2026-05-05 00:21 17.24030 -62.83129 2054 ft 200 kts 59°
2026-05-05 00:21 17.24763 -62.81954 1994 ft 185 kts 60°
2026-05-05 00:21 17.25451 -62.80860 2008 ft 177 kts 60°
2026-05-05 00:22 17.26117 -62.79801 1987 ft 170 kts 61°
2026-05-05 00:22 17.26759 -62.78779 1832 ft 167 kts 60°
2026-05-05 00:22 17.27406 -62.77782 1542 ft 161 kts 61°
2026-05-05 00:22 17.27985 -62.76843 1270 ft 147 kts 63°
2026-05-05 00:23 17.28335 -62.76230 1086 ft 146 kts 62°
2026-05-05 00:23 17.29063 -62.75084 783 ft 140 kts 61°
2026-05-05 00:23 17.29429 -62.74516 657 ft 143 kts 61°
2026-05-05 00:23 17.29988 -62.73639 470 ft 145 kts 60°
2026-05-05 00:24 17.30732 -62.72477 220 ft 145 kts 60°
2026-05-05 00:24 17.31095 -62.71898 172 ft 133 kts 53°
2026-05-05 00:24 17.31373 -62.71471 166 ft 40 kts 56°
2026-05-05 00:24 17.31438 -62.71360 167 ft 4 kts 86°
2026-05-05 00:25 17.31440 -62.71337 167 ft 0 kts 69°
2026-05-05 00:25 17.31452 -62.71332 167 ft 4 kts 15°
2026-05-05 00:25 17.31466 -62.71341 167 ft 5 kts 305°
2026-05-05 00:25 17.31461 -62.71376 167 ft 9 kts 232°
2026-05-05 00:26 17.31437 -62.71392 166 ft 1 kts 197°
2026-05-05 00:26 17.31386 -62.71389 165 ft 16 kts 184°
2026-05-05 00:26 17.31280 -62.71440 160 ft 14 kts 211°
2026-05-05 00:26 17.31224 -62.71435 159 ft 8 kts 141°
2026-05-05 00:27 17.31195 -62.71417 159 ft 1 kts 188°
2026-05-05 00:27 17.31189 -62.71423 159 ft 0 kts 221°
2026-05-05 00:27 17.31191 -62.71429 159 ft 0 kts 287°
2026-05-05 00:33 17.31191 -62.71430 159 ft 2 kts 289°
2026-05-05 00:33 17.31197 -62.71524 159 ft 15 kts 249°
2026-05-05 00:33 17.31160 -62.71590 159 ft 12 kts 236°
2026-05-05 00:34 17.31122 -62.71623 159 ft 3 kts 166°
2026-05-05 00:34 17.31077 -62.71631 159 ft 7 kts 230°
2026-05-05 00:34 17.31043 -62.71639 159 ft 7 kts 152°
2026-05-05 00:34 17.31027 -62.71626 159 ft 7 kts 154°
2026-05-05 00:35 17.31011 -62.71625 159 ft 1 kts 184°